sat.trackr.live / text

‹ back to catalog

ONEWEB-0581

NORAD 56069 · 2023-043Z

PAYLOAD ACTIVE UNKNOWN

§ Identity

Operator
Country
UK
Launch date
2023-03-26
Launch site
SRILR
Launch vehicle
Mass (kg)
RCS (m²)

Purposes: comms

External: N2YO · Heavens-Above · Gunter

§ Orbital elements

Epoch: 2026-05-24T23:18:31.104576Z

Period
109.37 min
Inclination
87.9107°
Eccentricity
0.0002543
Mean motion
13.16594845 rev/d
Perigee alt
1,195.8 km
Apogee alt
1,199.7 km
Semi-major
7,575.9 km
B*
-1.6082e-4
RAAN
233.3932°
Arg perigee
92.7524°
Mean anomaly
267.3898°
Rev number
15,590

§ Raw data

ONEWEB-05811 56069U 23043Z   26144.97119334 -.00000049  00000+0 -16082-3 0  99962 56069  87.9107 233.3932 0002543  92.7524 267.3898 13.16594845155907

JSON: /api/v1/satellites/56069 · /tle

For live sub-satellite position, see the globe view (requires WebGL).

§ Visibility from observer

Set your observer location to see the next 7 days of passes ≥ 10°. The values pass through the URL so the page stays shareable.

No JS? Fill the form by hand. The geolocation button needs JavaScript.